• Join FlightAware (Why Join?)
  • Login
  • US Flag 
04:28PM EDT


 

Airport Tracker/Info


-or-


 

Live Flight TrackerFlight Track Log ✈ LAN932 ✈ 03-Nov-2013 ✈ SCEL / SCL - SAME / MDZ

Flight Track Log - Related Links

Times and Time Zones

All times are in EST time to prevent confusion due to time zone crossing. See the LAN932 flight status page for this flight to view local times or setup timezone preferences in your user account.

Time Position Orientation Groundspeed Altitude Reporting Facility
EST Latitude Longitude Course Direction KTS MPH feet Rate Location/Type
02:05PM -33.3977 -70.8025 301° West 157 181 2,300  Level FlightAware ADS-B (SCEL / SCL)
02:05PM -33.4143 -70.8018 178° South 181 208 2,800 1,440 Climbing FlightAware ADS-B (SCEL / SCL)
02:05PM -33.4325 -70.8004 176° South 216 249 3,300 1,680 Climbing FlightAware ADS-B (SCEL / SCL)
02:06PM -33.4537 -70.7989 176° South 248 285 3,900 2,340 Climbing FlightAware ADS-B (SCEL / SCL)
02:06PM -33.4764 -70.7975 177° South 268 308 4,800 3,240 Climbing FlightAware ADS-B (SCEL / SCL)
02:06PM -33.5181 -70.7952 177° South 280 322 6,700 3,540 Climbing FlightAware ADS-B (SCEL / SCL)
02:07PM -33.5526 -70.7934 177° South 292 336 8,200 2,820 Climbing FlightAware ADS-B (SCEL / SCL)
02:08PM -33.6469 -70.7876 177° South 344 396 11,000 2,520 Climbing FlightAware ADS-B (SCEL / SCL)
02:09PM -33.7090 -70.7837 177° South 366 421 12,600 2,880 Climbing FlightAware ADS-B (SCEL / SCL)
02:09PM -33.7613 -70.7738 171° South 372 428 14,300 3,000 Climbing FlightAware ADS-B (SCEL / SCL)
02:09PM -33.7757 -70.7633 149° Southeast 376 433 14,700 2,580 Climbing FlightAware ADS-B (SCEL / SCL)
02:09PM -33.7854 -70.7525 137° Southeast 379 436 15,300 3,000 Climbing FlightAware ADS-B (SCEL / SCL)
02:10PM -33.7989 -70.7269 123° Southeast 380 437 15,800 2,820 Climbing FlightAware ADS-B (SCEL / SCL)
02:10PM -33.8039 -70.7073 107° East 383 441 16,200 2,400 Climbing FlightAware ADS-B (SCEL / SCL)
02:10PM -33.8053 -70.6867 95° East 386 444 16,600 2,760 Climbing FlightAware ADS-B (SCEL / SCL)
02:11PM -33.7966 -70.5999 83° East 388 447 18,500 2,880 Climbing FlightAware ADS-B (SCEL / SCL)
02:11PM -33.7892 -70.5342 82° East 389 448 20,000 1,980 Climbing FlightAware ADS-B (SCEL / SCL)
02:12PM -33.7803 -70.4471 83° East 417 480 20,900 1,740 Climbing FlightAware ADS-B (SCEL / SCL)
02:12PM -33.7731 -70.3766 83° East 421 484 22,100 2,400 Climbing FlightAware ADS-B (SCEL / SCL)
02:13PM -33.7638 -70.2852 83° East 422 486 23,700 2,160 Climbing FlightAware ADS-B (SCEL / SCL)
02:13PM -33.7646 -70.2341 91° East 428 493 24,300 2,160 Climbing FlightAware ADS-B (SCEL / SCL)
02:14PM -33.7749 -70.1387 97° East 425 489 25,900 2,340 Climbing FlightAware ADS-B (SCEL / SCL)
02:14PM -33.7824 -70.0677 97° East 423 487 27,100 2,280 Climbing FlightAware ADS-B (SCEL / SCL)
02:15PM -33.7914 -69.9806 97° East 419 482 28,600 1,440 Climbing FlightAware ADS-B (SCEL / SCL)
02:16PM -33.8015 -69.8836 97° East 416 479 29,000 300 Climbing FlightAware ADS-B (SCEL / SCL)
02:16PM -33.8067 -69.8316 97° East 418 481 29,000  Level FlightAware ADS-B (SCEL / SCL)
02:17PM -33.8162 -69.7355 97° East 423 487 29,000 -1,080 Level FlightAware ADS-B (SCEL / SCL)
02:17PM -33.8240 -69.6542 97° East 431 496 27,800 -1,080 Descending FlightAware ADS-B (SCEL / SCL)
02:18PM -33.8270 -69.6300 98° East 425 489 27,700 -120 Descending FlightAware
02:19PM -33.8350 -69.5560 97° East 425 489 27,700 -2,400 Level FlightAware
02:22PM -33.7275 -69.4732 33° Northeast  Level Estimated
02:23PM -33.6884 -69.4431 33° Northeast  Level Estimated
02:24PM -33.6493 -69.4131 33° Northeast  Level Estimated
02:25PM -33.6101 -69.3831 33° Northeast  Level Estimated
02:26PM -33.5710 -69.3531 33° Northeast  Level Estimated
02:27PM -33.5319 -69.3232 33° Northeast  Level Estimated
02:27PM -33.1610 -68.8860 33° Northeast 228 262 6,000  Level FlightAware
02:28PM -33.4927 -69.2933 33° Northeast  Level Estimated
02:28PM -33.1320 -68.8580 39° Northeast 200 230 6,000  Level FlightAware
02:29PM -33.1100 -68.8380 37° Northeast 192 221 6,000  Level FlightAware
02:29PM -33.0850 -68.8150 38° Northeast 191 220 6,000  Level FlightAware
02:30PM -33.0700 -68.8000 40° Northeast 196 226 6,000 -480 Level FlightAware
02:30PM -33.0440 -68.7950 North 206 237 5,600 -1,140 Descending FlightAware
02:30PM -33.0140 -68.7960 358° North 206 237 5,000 -720 Descending FlightAware
02:31PM -32.9750 -68.7950 North 178 205 4,700 -540 Descending FlightAware
02:32PM -32.9500 -68.7950 360° North 143 165 4,300 -720 Descending FlightAware
02:32PM -32.9380 -68.7940 North 132 152 4,100 -660 Descending FlightAware
02:33PM -32.9160 -68.7940 360° North 132 152 3,700 -780 Descending FlightAware
02:33PM -32.8970 -68.7940 360° North 137 158 3,300 -720 Descending FlightAware
02:34PM -32.8690 -68.7930 North 134 154 2,800 -660 Descending FlightAware
02:34PM -32.8540 -68.7930 360° North 137 158 2,600 -540 Descending FlightAware
02:35PM -32.8340 -68.7930 360° North 120 138 -4,380 Descending FlightAware